EN

Hourly Weather Allassac

Today, 26 January, Tuesday

Time Temperature Precipitation Wind Pressure Humidity
00:00 -1°C° 0 mm 1 mps 739 mmHg 94%
01:00 -1°C° 0 mm 1 mps 739 mmHg 93%
02:00 -1°C° 0 mm 1 mps 740 mmHg 92%
03:00 -1°C° 0 mm 1 mps 740 mmHg 91%
04:00 -2°C° 0 mm 0 mps 740 mmHg 89%
05:00 -2°C° 0 mm 0 mps 740 mmHg 87%
06:00 -2°C° 0 mm 0 mps 741 mmHg 85%
07:00 -1°C° 0 mm 0 mps 741 mmHg 80%
08:00 +1°C° 0 mm 1 mps 741 mmHg 76%
09:00 +2°C° 0 mm 1 mps 741 mmHg 71%
10:00 +3°C° 0 mm 1 mps 741 mmHg 64%
11:00 +4°C° 0 mm 1 mps 741 mmHg 56%
12:00 +6°C° 0 mm 1 mps 741 mmHg 48%
13:00 +6°C° 0 mm 1 mps 740 mmHg 48%
14:00 +6°C° 0 mm 1 mps 740 mmHg 48%
15:00 +6°C° 0 mm 0 mps 739 mmHg 48%
16:00 +5°C° 0 mm 0 mps 739 mmHg 52%
17:00 +3°C° 0 mm 0 mps 739 mmHg 56%
18:00 +2°C° 0 mm 0 mps 739 mmHg 59%
19:00 +2°C° 0 mm 0 mps 739 mmHg 60%
20:00 +2°C° 0 mm 0 mps 739 mmHg 61%
21:00 +2°C° 0 mm 1 mps 739 mmHg 62%
22:00 +2°C° 0 mm 1 mps 739 mmHg 62%
23:00 +3°C° 0 mm 1 mps 739 mmHg 61%

Tomorrow, 27 January, Wednesday

Time Temperature Precipitation Wind Pressure Humidity
00:00 +3°C° 0 mm 1 mps 739 mmHg 60%
01:00 +3°C° 0.2 mm 1 mps 738 mmHg 66%
02:00 +3°C° 0.2 mm 1 mps 738 mmHg 73%
03:00 +3°C° 0.2 mm 1 mps 737 mmHg 79%
04:00 +3°C° 0 mm 1 mps 737 mmHg 80%
05:00 +3°C° 0 mm 1 mps 737 mmHg 81%
06:00 +3°C° 0 mm 1 mps 737 mmHg 83%
07:00 +3°C° 0.1 mm 1 mps 738 mmHg 84%
08:00 +4°C° 0.1 mm 1 mps 738 mmHg 86%
09:00 +3°C° 0.1 mm 0 mps 738 mmHg 88%
10:00 +4°C° 0 mm 0 mps 739 mmHg 90%
11:00 +5°C° 0 mm 0 mps 739 mmHg 91%
12:00 +5°C° 0 mm 0 mps 739 mmHg 93%
13:00 +6°C° 0 mm 0 mps 739 mmHg 94%
14:00 +6°C° 0 mm 0 mps 739 mmHg 96%
15:00 +7°C° 0 mm 0 mps 738 mmHg 97%
16:00 +7°C° 0.3 mm 0 mps 739 mmHg 98%
17:00 +8°C° 0.3 mm 1 mps 739 mmHg 98%
18:00 +8°C° 0.3 mm 1 mps 739 mmHg 99%
19:00 +8°C° 0.4 mm 1 mps 739 mmHg 99%
20:00 +8°C° 0.4 mm 1 mps 739 mmHg 99%
21:00 +8°C° 0.4 mm 1 mps 739 mmHg 99%
22:00 +9°C° 0.1 mm 1 mps 739 mmHg 99%
23:00 +9°C° 0.1 mm 1 mps 739 mmHg 99%

Day after tomorrow, 28 January, Thursday

Time Temperature Precipitation Wind Pressure Humidity
00:00 +9°C° 0.1 mm 1 mps 739 mmHg 99%
01:00 +10°C° 0.1 mm 1 mps 738 mmHg 99%
02:00 +9°C° 0.1 mm 2 mps 738 mmHg 99%
03:00 +9°C° 0.1 mm 2 mps 738 mmHg 99%
04:00 +9°C° 0.1 mm 2 mps 738 mmHg 99%
05:00 +10°C° 0.1 mm 2 mps 738 mmHg 99%
06:00 +10°C° 0.1 mm 2 mps 737 mmHg 99%
07:00 +10°C° 0.3 mm 2 mps 737 mmHg 98%
08:00 +10°C° 0.3 mm 2 mps 737 mmHg 98%
09:00 +12°C° 0.3 mm 2 mps 737 mmHg 98%
10:00 +11°C° 0.4 mm 3 mps 737 mmHg 97%
11:00 +11°C° 0.4 mm 3 mps 737 mmHg 96%
12:00 +11°C° 0.4 mm 3 mps 737 mmHg 96%
13:00 +11°C° 0.5 mm 3 mps 737 mmHg 96%
14:00 +11°C° 0.5 mm 3 mps 736 mmHg 96%
15:00 +11°C° 0.5 mm 3 mps 736 mmHg 97%
16:00 +11°C° 0.5 mm 3 mps 736 mmHg 97%
17:00 +11°C° 0.5 mm 3 mps 736 mmHg 97%
18:00 +11°C° 0.5 mm 3 mps 736 mmHg 97%
19:00 +11°C° 0.6 mm 3 mps 736 mmHg 97%
20:00 +11°C° 0.6 mm 3 mps 736 mmHg 97%
21:00 +12°C° 0.6 mm 2 mps 736 mmHg 97%
22:00 +12°C° 0.3 mm 2 mps 736 mmHg 97%
23:00 +12°C° 0.3 mm 2 mps 736 mmHg 97%

29 January, Friday

Time Temperature Precipitation Wind Pressure Humidity
00:00 +12°C° 0.3 mm 2 mps 736 mmHg 97%
01:00 +12°C° 0.3 mm 2 mps 736 mmHg 97%
02:00 +12°C° 0.3 mm 2 mps 736 mmHg 97%
03:00 +11°C° 0.3 mm 3 mps 735 mmHg 97%
04:00 +12°C° 1 mm 2 mps 735 mmHg 97%
05:00 +10°C° 1 mm 2 mps 735 mmHg 98%
06:00 +10°C° 1 mm 2 mps 734 mmHg 98%
07:00 +10°C° 1.1 mm 2 mps 734 mmHg 98%
08:00 +10°C° 1.1 mm 2 mps 734 mmHg 98%
09:00 +10°C° 1.1 mm 2 mps 734 mmHg 98%
10:00 +10°C° 1.4 mm 2 mps 734 mmHg 97%
11:00 +11°C° 1.4 mm 1 mps 734 mmHg 96%
12:00 +11°C° 1.4 mm 1 mps 734 mmHg 95%
13:00 +11°C° 0.3 mm 1 mps 734 mmHg 94%
14:00 +11°C° 0.3 mm 1 mps 734 mmHg 94%
15:00 +12°C° 0.3 mm 2 mps 735 mmHg 93%
16:00 +11°C° 0.1 mm 1 mps 735 mmHg 94%
17:00 +10°C° 0.1 mm 1 mps 735 mmHg 96%
18:00 +9°C° 0.1 mm 1 mps 735 mmHg 97%
19:00 +9°C° 0 mm 1 mps 735 mmHg 98%
20:00 +9°C° 0 mm 1 mps 735 mmHg 98%
21:00 +8°C° 0 mm 0 mps 735 mmHg 98%
22:00 +9°C° 0 mm 1 mps 734 mmHg 98%
23:00 +9°C° 0 mm 1 mps 733 mmHg 98%

30 January, Saturday

Time Temperature Precipitation Wind Pressure Humidity
00:00 +9°C° 0 mm 1 mps 732 mmHg 98%
01:00 +9°C° 0 mm 1 mps 731 mmHg 98%
02:00 +9°C° 0 mm 1 mps 730 mmHg 97%
03:00 +9°C° 0 mm 1 mps 729 mmHg 97%
04:00 +8°C° 0.4 mm 1 mps 728 mmHg 97%
05:00 +8°C° 0.4 mm 1 mps 728 mmHg 97%
06:00 +8°C° 0.4 mm 1 mps 727 mmHg 97%
07:00 +8°C° 1 mm 1 mps 727 mmHg 97%
08:00 +8°C° 1 mm 1 mps 727 mmHg 97%
09:00 +9°C° 1 mm 1 mps 727 mmHg 98%
10:00 +9°C° 0.2 mm 1 mps 727 mmHg 97%
11:00 +9°C° 0.2 mm 1 mps 727 mmHg 96%
12:00 +9°C° 0.2 mm 0 mps 727 mmHg 96%
13:00 +9°C° 0 mm 0 mps 727 mmHg 96%
14:00 +9°C° 0 mm 0 mps 727 mmHg 97%
15:00 +9°C° 0 mm 0 mps 728 mmHg 97%
16:00 +9°C° 0 mm 0 mps 728 mmHg 97%
17:00 +9°C° 0 mm 0 mps 729 mmHg 98%
18:00 +9°C° 0 mm 0 mps 729 mmHg 98%
19:00 +10°C° 0.1 mm 1 mps 730 mmHg 98%
20:00 +10°C° 0.1 mm 1 mps 730 mmHg 98%
21:00 +9°C° 0.1 mm 2 mps 731 mmHg 97%
22:00 +9°C° 0.1 mm 2 mps 731 mmHg 97%
23:00 +9°C° 0.1 mm 2 mps 731 mmHg 97%

31 January, Sunday

Time Temperature Precipitation Wind Pressure Humidity
00:00 +10°C° 0.1 mm 2 mps 731 mmHg 97%
01:00 +9°C° 0.2 mm 3 mps 731 mmHg 96%
02:00 +9°C° 0.2 mm 3 mps 731 mmHg 95%
03:00 +9°C° 0.2 mm 3 mps 731 mmHg 94%
04:00 +8°C° 0.1 mm 3 mps 731 mmHg 94%
05:00 +8°C° 0.1 mm 3 mps 731 mmHg 94%
06:00 +8°C° 0.1 mm 2 mps 731 mmHg 95%
07:00 +8°C° 0.4 mm 2 mps 731 mmHg 95%
08:00 +8°C° 0.4 mm 3 mps 730 mmHg 96%
09:00 +8°C° 0.4 mm 3 mps 730 mmHg 96%
10:00 +8°C° 1.2 mm 3 mps 729 mmHg 95%
11:00 +8°C° 1.2 mm 3 mps 729 mmHg 94%
12:00 +8°C° 1.2 mm 3 mps 728 mmHg 92%
13:00 +8°C° 0.6 mm 4 mps 728 mmHg 90%
14:00 +9°C° 0.6 mm 5 mps 727 mmHg 88%
15:00 +9°C° 0.6 mm 6 mps 727 mmHg 86%
16:00 +9°C° 0.5 mm 5 mps 727 mmHg 87%
17:00 +8°C° 0.5 mm 5 mps 727 mmHg 89%
18:00 +7°C° 0.5 mm 4 mps 727 mmHg 90%
19:00 +7°C° 1 mm 5 mps 728 mmHg 91%
20:00 +7°C° 1 mm 5 mps 728 mmHg 92%
21:00 +7°C° 1 mm 5 mps 728 mmHg 93%
22:00 +8°C° 0.9 mm 5 mps 729 mmHg 93%
23:00 +8°C° 0.9 mm 5 mps 729 mmHg 93%
Show more